Regional Weather Roundup
Issued by NWS

Home | Current Version | Previous Version | Text Only | Print | Product List | Glossary Off
Versions: 1 2 3 4 5 6 7 8 9 10 11 12 13 14 15 16 17 18 19 20 21 22 23 24 25 26 27 28 29 30 31 32 33 34 35 36 37 38 39 40 41 42 43 44 45 46 47 48 49 50

000
ASUS43 KFSD 310202
RWRSD

WEATHER ROUNDUP FOR SOUTH DAKOTA
NATIONAL WEATHER SERVICE SIOUX FALLS SD
900 PM CDT WED JUL 30 2014

NOTE: "FAIR" INDICATES FEW OR NO CLOUDS BELOW 12,000 FEET WITH NO
SIGNIFICANT WEATHER AND/OR OBSTRUCTIONS TO VISIBILITY.


SDZ001>005-009-010-012>017-310300-
NORTHWEST AND NORTH CENTRAL SOUTH DAKOTA

CITY           SKY/WX    TMP DP  RH WIND       PRES   REMARKS
BUFFALO          N/A     74  52  46 E8        30.10S
FAITH            N/A     75  56  51 N8        30.12R
MOBRIDGE       PTCLDY    74  60  61 NE7       30.06S
$$

SDZ012>016-024>037-041>051-057-063-072>074-310300-
SOUTHWEST AND SOUTH CENTRAL SOUTH DAKOTA

CITY           SKY/WX    TMP DP  RH WIND       PRES   REMARKS
RAPID CTY ARPT PTCLDY    69  52  54 N8        30.15S
PIERRE         PTCLDY    77  57  50 E6        30.04S
CUSTER         PTCLDY    66  47  50 E5        30.29S
ELLSWORTH AFB  PTCLDY    76  49  38 NE8       30.15S
PHILIP         PTCLDY    77  48  35 NW8       30.06S
PINE RIDGE     PTCLDY    72  52  49 S3        30.15S
WINNER         MOCLDY    80  52  37 SE12      30.07S
$$

SDZ004>011-016>023-039-040-310300-
NORTHEAST SOUTH DAKOTA

CITY           SKY/WX    TMP DP  RH WIND       PRES   REMARKS
ABERDEEN       CLEAR     67  57  70 S6        30.08S
WATERTOWN      CLEAR     68  55  63 NE3       30.09S
SISSETON         N/A     68  59  73 W3        30.06S
$$

SDZ017-020-022-023-036>040-048>070-310300-
SOUTHEAST SOUTH DAKOTA

CITY           SKY/WX    TMP DP  RH WIND       PRES   REMARKS
SIOUX FALLS    CLEAR     69  55  60 CALM      30.10R
HURON          CLEAR     73  56  54 NE5       30.07S
CHAMBERLAIN    CLOUDY    75  55  50 E6        30.07S
MITCHELL       CLEAR     74  58  57 S6        30.09R
YANKTON          N/A    N/A N/A N/A MISG        N/A
$$

ABBREVIATIONS USED IN REMARKS
   TC - TEMPERATURE IN CELSIUS
  WCI - WIND CHILL INDEX
   HX - HEAT INDEX
  VSB - VISIBILITY




USA.gov is the U.S. government's official web portal to all federal, state and local government web resources and services.